BEIDOU-3 G2 (C60)

Last updated on Wed Aug 26 2026 00:04:16 GMT+0000 (Coordinated Universal Time)

1 45344U 20017A 26237.63244389 -.00000142 00000+0 00000+0 0 9995 2 45344 2.5434 48.1093 0002316 97.6599 135.8573 1.00272895 23957
UTC large
Height (km)
Speed (km/s)
/
Latitude / Longitude
Inclination (degrees)
Orbital Period (minutes)
Azimuth
Elevation
Range (km)
Doppler Factor

Next 0 passes for location: London (51.5072 / 0.1276)

No passes found over London.
BEIDOU-3 G2 (C60)